sat.trackr.live / text

‹ back to catalog

STARLINK-36144

NORAD 67829 · 2026-033J

PAYLOAD ACTIVE UNKNOWN

§ Identity

Operator
Country
US
Launch date
2026-02-16
Launch site
AFETR
Launch vehicle
Mass (kg)
RCS (m²)

Purposes: comms

External: N2YO · Heavens-Above · Gunter

§ Orbital elements

Epoch: 2026-05-25T04:57:37.299744Z

Period
94.27 min
Inclination
43.0010°
Eccentricity
0.0001683
Mean motion
15.27582302 rev/d
Perigee alt
481.9 km
Apogee alt
484.2 km
Semi-major
6,861.2 km
B*
5.4305e-4
RAAN
195.1560°
Arg perigee
272.3003°
Mean anomaly
87.7656°
Rev number
1,637

§ Raw data

STARLINK-361441 67829U 26033J   26145.20668171  .00014713  00000+0  54305-3 0  99902 67829  43.0010 195.1560 0001683 272.3003  87.7656 15.27582302 16375

JSON: /api/v1/satellites/67829 · /tle

For live sub-satellite position, see the globe view (requires WebGL).

§ Visibility from observer

Set your observer location to see the next 7 days of passes ≥ 10°. The values pass through the URL so the page stays shareable.

No JS? Fill the form by hand. The geolocation button needs JavaScript.